Regional Weather Roundup
Issued by NWS Albany, NY

Home | Current Version | Previous Version | Text Only | Print | Product List | Glossary On
Versions: 1 2 3 4 5 6 7 8 9 10 11 12 13 14 15 16 17 18 19 20 21 22 23 24 25 26 27 28 29 30 31 32 33 34 35 36 37 38 39 40 41 42 43 44 45 46 47 48 49 50
686
ASUS41 KALY 300310
RWRALY

NEW YORK STATE HOURLY WEATHER ROUNDUP
NATIONAL WEATHER SERVICE ALBANY NY
1100 PM EDT SUN MAY 29 2016

NOTE: "FAIR" INDICATES FEW OR NO CLOUDS BELOW 12,000 FEET WITH NO
SIGNIFICANT WEATHER AND/OR NO OBSTRUCTIONS TO VISIBILITY.

NYZ032-033-038>043-046>054-057>066-NYZ062>081-082-084-300400-
EAST


CITY           SKY/WX    TMP DP  RH WIND       PRES   REMARKS
ALBANY         CLOUDY    70  66  87 W3        30.03F
GLENS FALLS    CLOUDY    68  66  93 CALM      30.02F
POUGHKEEPSIE   CLOUDY    75  66  73 SE8       30.03F
NEWBURGH       MOCLDY    72  68  88 SE8       30.06S
MONTGOMERY     CLOUDY    71  65  81 CALM      30.04F
WHITE PLAINS   CLOUDY    69  66  90 SE8       30.07F
ISLIP          FOG       67  65  93 S7        30.09F VSB 1
NEW YORK CITY  LGT RAIN  71  69  93 S7        30.06S
CENTRAL PARK   MOCLDY    71  63  75 VRB3      30.09S
$$

NYZ005>009-017-018-044>046-055-056-300400-
CENTRAL


CITY           SKY/WX    TMP DP  RH WIND       PRES   REMARKS
FULTON         CLOUDY    71  65  81 S9        30.01R
SYRACUSE       CLOUDY    67  67 100 SE5       30.01F
ROME           CLOUDY    67  67 100 E5        30.04S
ELMIRA         LGT RAIN  68  63  84 N5        30.03F
BINGHAMTON     LGT RAIN  70  61  73 NW7       30.06S
MONTICELLO     CLOUDY    72  57  60 S5        30.09S
$$

NYZ026>034-041>043-087-300400-
NORTH


CITY           SKY/WX    TMP DP  RH WIND       PRES   REMARKS
WATERTOWN      CLOUDY    73  60  63 S10G17    29.94F
FORT DRUM      NOT AVBL
MASSENA        CLOUDY    72  66  81 S6        29.94F
SARANAC LAKE   PTCLDY    66  63  90 W3        30.02F FOG
PLATTSBURGH    LGT RAIN  68  66  93 CALM      29.98F
$$

NYZ001>004-010>016-019>021-085-300400-
WEST


CITY           SKY/WX    TMP DP  RH WIND       PRES   REMARKS
NIAGARA FALLS  CLOUDY    72  61  68 SW6       29.96F
BUFFALO        MOCLDY    73  56  54 S9        29.97F
DUNKIRK        CLOUDY    73  55  53 S14       29.98S
JAMESTOWN      PTCLDY    64  54  68 S8        30.05S
WELLSVILLE     CLOUDY    65  58  78 SE7       30.09S
ROCHESTER      LGT RAIN  67  65  93 SE10      29.99F
PENN YAN       LGT RAIN  65  62  90 SE6       30.05F
$$

             KEY
       WCI = WIND CHILL INDEX
       VSB = VISIBILITY
       HX  = HEAT INDEX
$$




USA.gov is the U.S. government's official web portal to all federal, state and local government web resources and services.